Retour au catalogue

HOT BIRD 1

ActifCommunicationsGEO
NORAD 23537·PAYLOAD·🇪🇺 EU

Lancé Mar 28, 1995 depuis Guiana Space Centre

Loading…

TLE

FraisSource: Space-Track

Époque: Sep 14, 2026, 17:51 UTC

1 23537U 95016B   26257.74407413 -.00000324  00000-0  00000-0 0  9993
2 23537  13.2009  22.0036 0002519 102.9340 270.4720  0.99318042114606

Suivez HOT BIRD 1 en temps réel avec AllMySat

Download on the App Store